KA7RLM Weather Reports


Display with metric or nautical units.
time (UTC)temp
F
wind
direction
speed
MPH
gust
MPH
rain 1hr
in
rain 24hr
in
rain mn
in
humidity
%
barometer
mb
20260507064027 54 202 2.0 4.0 0.00 0.00 0.00 84 1021.5
20260507063051 54 228 4.0 6.0 0.00 0.00 0.00 84 1021.5
20260507062017 54 205 5.0 8.0 0.00 0.00 0.00 84 1021.5
20260507061019 54 234 4.0 6.0 0.00 0.00 0.00 84 1021.6
20260507060047 55 225 4.0 5.0 0.00 0.00 0.00 83 1021.5
20260507055025 55 212 4.0 6.0 0.00 0.00 0.00 82 1021.5
20260507054028 55 175 4.0 5.0 0.00 0.00 0.00 82 1021.5
20260507053032 55 211 3.0 5.0 0.00 0.00 0.00 81 1021.6
20260507052017 55 208 3.0 7.0 0.00 0.00 0.00 81 1021.6
20260507051021 55 219 4.0 6.0 0.00 0.00 0.00 81 1021.5
20260507050023 55 193 4.0 7.0 0.00 0.00 0.00 81 1021.5
20260507045047 56 227 1.0 3.0 0.00 0.00 0.00 82 1021.5
20260507044029 56 233 2.0 3.0 0.00 0.00 0.00 82 1021.5
20260507043043 56 217 2.0 3.0 0.00 0.00 0.00 81 1021.5
20260507042020 56 216 4.0 5.0 0.00 0.00 0.00 81 1021.5
20260507041037 56 232 3.0 6.0 0.00 0.00 0.00 80 1021.3
20260507040021 56 200 4.0 6.0 0.00 0.00 0.00 80 1021.3
20260507035024 56 203 4.0 8.0 0.00 0.00 0.00 79 1021.3
20260507034027 56 213 4.0 5.0 0.00 0.00 0.00 79 1021.2
20260507033030 57 251 2.0 3.0 0.00 0.00 0.00 79 1021.1
20260507032033 57 232 2.0 3.0 0.00 0.00 0.00 78 1020.9
20260507031018 57 236 3.0 5.0 0.00 0.00 0.00 78 1020.9
20260507030021 58 229 3.0 4.0 0.00 0.00 0.00 77 1020.8
20260507025025 58 218 3.0 4.0 0.00 0.00 0.00 77 1020.8
20260507024027 58 229 2.0 4.0 0.00 0.00 0.00 77 1020.7
20260507023029 58 225 3.0 5.0 0.00 0.00 0.00 77 1020.7
20260507022053 58 243 4.0 6.0 0.00 0.00 0.00 77 1020.6
20260507021038 58 222 5.0 8.0 0.00 0.00 0.00 76 1020.6
20260507020022 58 221 4.0 6.0 0.00 0.00 0.00 76 1020.6
20260507015025 59 225 5.0 8.0 0.00 0.00 0.00 74 1020.6
20260507014048 60 222 5.0 7.0 0.00 0.00 0.00 72 1020.6
20260507013031 60 197 5.0 9.0 0.00 0.00 0.00 73 1020.5
20260507012016 60 235 3.0 5.0 0.00 0.00 0.00 73 1020.6
20260507011046 60 221 4.0 6.0 0.00 0.00 0.00 71 1020.6
20260507010044 61 249 6.0 8.0 0.00 0.00 0.00 70 1020.6
20260507005022 61 212 6.0 8.0 0.00 0.00 0.00 69 1020.6
20260507004019 61 231 4.0 6.0 0.00 0.00 0.00 70 1020.6
20260507003036 61 235 6.0 8.0 0.00 0.00 0.00 69 1020.6
20260507002019 61 248 5.0 8.0 0.00 0.00 0.00 71 1020.6
20260507001023 61 254 4.0 8.0 0.00 0.00 0.00 70 1020.6
20260507000026 62 233 5.0 8.0 0.00 0.00 0.00 68 1020.6
20260506235028 62 187 6.0 10.0 0.00 0.00 0.00 68 1020.6
20260506234026 62 242 5.0 8.0 0.00 0.00 0.00 68 1020.6
20260506233104 63 221 5.0 7.0 0.00 0.00 0.00 67 1020.6
20260506232027 62 210 3.0 5.0 0.00 0.00 0.00 68 1020.6
20260506231032 61 233 4.0 7.0 0.00 0.00 0.00 70 1020.7
20260506230016 61 200 5.0 7.0 0.00 0.00 0.00 70 1020.7
20260506225019 61 240 4.0 5.0 0.00 0.00 0.00 70 1020.8
20260506224042 61 245 4.0 7.0 0.00 0.00 0.00 70 1020.8
20260506223046 60 213 5.0 7.0 0.00 0.00 0.00 70 1020.9
20260506222029 61 259 4.0 6.0 0.00 0.00 0.00 69 1021.0
20260506221027 61 279 3.0 7.0 0.00 0.00 0.00 70 1021.0
20260506220030 61 246 3.0 5.0 0.00 0.00 0.00 71 1021.0
20260506215054 60 210 4.0 5.0 0.00 0.00 0.00 71 1021.1
20260506214018 60 230 3.0 4.0 0.00 0.00 0.00 73 1021.1
20260506213021 59 242 5.0 7.0 0.00 0.00 0.00 74 1021.1
20260506212029 59 197 4.0 6.0 0.00 0.00 0.00 75 1021.1
20260506211023 59 210 4.0 7.0 0.00 0.00 0.00 76 1021.1
20260506210019 59 236 4.0 7.0 0.00 0.00 0.00 75 1021.1
20260506205037 59 191 5.0 6.0 0.00 0.00 0.00 76 1021.0
20260506204108 59 211 6.0 8.0 0.00 0.00 0.00 76 1021.0
20260506203030 59 189 4.0 6.0 0.00 0.00 0.00 77 1021.0
20260506202114 59 221 4.0 7.0 0.00 0.00 0.00 78 1020.9
20260506201019 59 216 3.0 5.0 0.00 0.00 0.00 79 1021.0
20260506200023 58 227 4.0 6.0 0.00 0.00 0.00 81 1020.9
20260506195027 58 241 5.0 6.0 0.00 0.00 0.00 82 1020.9
20260506194029 57 228 5.0 10.0 0.00 0.00 0.00 83 1020.9
20260506193118 58 213 4.0 7.0 0.00 0.00 0.00 83 1020.8
20260506192018 58 183 2.0 5.0 0.00 0.00 0.00 84 1020.8
20260506191016 57 209 4.0 5.0 0.00 0.00 0.00 85 1020.8
20260506190031 57 220 4.0 6.0 0.00 0.00 0.00 86 1020.9
20260506185017 56 225 3.0 5.0 0.00 0.00 0.00 86 1020.9
20260506184021 57 212 4.0 6.0 0.00 0.00 0.00 86 1020.8
20260506183025 57 221 3.0 4.0 0.00 0.00 0.00 85 1020.6
20260506182027 57 220 2.0 4.0 0.00 0.00 0.00 86 1020.8
20260506181031 56 241 3.0 4.0 0.00 0.00 0.00 85 1020.8
20260506180016 57 205 3.0 5.0 0.00 0.00 0.00 85 1020.6
20260506175020 56 209 2.0 4.0 0.00 0.00 0.00 86 1020.7
20260506174022 56 205 3.0 6.0 0.00 0.00 0.00 87 1020.8
20260506173025 55 203 3.0 6.0 0.00 0.00 0.00 89 1020.7
20260506172022 55 228 4.0 5.0 0.00 0.00 0.00 89 1020.7
20260506171019 55 211 3.0 4.0 0.00 0.00 0.00 89 1020.6
20260506170016 55 203 5.0 7.0 0.00 0.00 0.00 89 1020.5
20260506165031 55 206 3.0 6.0 0.00 0.00 0.00 88 1020.4
20260506164017 56 206 3.0 4.0 0.00 0.00 0.00 88 1020.3
20260506163019 54 250 1.0 2.0 0.00 0.00 0.00 90 1020.2
20260506162023 54 208 1.0 3.0 0.00 0.00 0.00 91 1020.4
20260506161025 54 195 2.0 3.0 0.00 0.00 0.00 91 1020.5
20260506160028 54 176 3.0 5.0 0.00 0.00 0.00 91 1020.3
20260506155031 54 214 3.0 6.0 0.00 0.00 0.00 91 1020.2
20260506154021 54 203 0.0 2.0 0.00 0.00 0.00 92 1020.1
20260506153020 53 205 4.0 5.0 0.00 0.00 0.00 92 1020.3
20260506152044 53 195 3.0 5.0 0.00 0.00 0.00 94 1020.4
20260506151047 53 233 4.0 5.0 0.00 0.00 0.00 93 1020.4
20260506150045 53 190 5.0 6.0 0.00 0.00 0.00 93 1020.0
20260506145029 53 201 3.0 4.0 0.00 0.00 0.00 94 1019.9
20260506144031 53 231 2.0 5.0 0.00 0.00 0.00 94 1019.8
20260506143017 53 220 3.0 5.0 0.00 0.00 0.00 94 1020.1
20260506142020 53 209 3.0 5.0 0.00 0.00 0.00 94 1020.1
20260506141043 53 200 3.0 5.0 0.00 0.00 0.00 94 1019.9
20260506140025 53 194 2.0 4.0 0.00 0.00 0.00 93 1020.1
20260506135023 53 195 3.0 6.0 0.00 0.00 0.00 93 1020.0
20260506134020 53 221 4.0 6.0 0.00 0.00 0.00 93 1019.8
20260506133017 53 210 3.0 4.0 0.00 0.00 0.00 94 1019.6
20260506132020 53 220 3.0 5.0 0.00 0.00 0.00 94 1019.5
20260506131025 53 191 2.0 4.0 0.00 0.00 0.00 94 1019.6
20260506130028 53 207 1.0 3.0 0.00 0.00 0.00 95 1019.4
20260506125031 53 261 1.0 2.0 0.00 0.00 0.00 95 1019.3
20260506124016 54 0.0 0.0 0.00 0.00 0.00 95 1019.3
20260506123039 54 0.0 0.0 0.00 0.00 0.00 96 1019.4
20260506122024 53 0.0 0.0 0.00 0.00 0.00 96 1019.3
20260506121020 53 248 0.0 3.0 0.00 0.00 0.00 95 1019.0
20260506120043 53 157 1.0 4.0 0.00 0.00 0.00 96 1019.1
20260506115027 53 135 0.0 2.0 0.00 0.00 0.00 96 1019.1
20260506114030 53 0.0 1.0 0.00 0.00 0.00 95 1019.2
20260506113016 54 203 0.0 2.0 0.00 0.00 0.00 95 1019.2
20260506112019 54 197 1.0 3.0 0.00 0.00 0.00 95 1019.1
20260506111022 54 243 2.0 3.0 0.00 0.00 0.00 93 1019.1
20260506110049 54 212 3.0 4.0 0.00 0.00 0.00 91 1018.9
20260506105027 54 234 3.0 5.0 0.00 0.00 0.00 90 1018.8
20260506104030 55 215 3.0 5.0 0.00 0.00 0.00 89 1018.7
20260506103017 55 192 2.0 3.0 0.00 0.00 0.00 89 1018.6
20260506102019 55 250 2.0 4.0 0.00 0.00 0.00 89 1018.5
20260506101022 55 203 0.0 2.0 0.00 0.00 0.00 89 1018.3
20260506100019 55 203 0.0 2.0 0.00 0.00 0.00 89 1018.2
20260506095036 55 188 2.0 4.0 0.00 0.00 0.00 89 1018.2
20260506094025 55 229 2.0 3.0 0.00 0.00 0.00 89 1018.2
20260506093104 55 200 2.0 4.0 0.00 0.00 0.00 89 1018.1
20260506092027 55 217 2.0 4.0 0.00 0.00 0.00 89 1018.1
20260506091051 55 254 1.0 3.0 0.00 0.00 0.00 89 1018.0
20260506090015 55 225 1.0 2.0 0.00 0.00 0.00 88 1018.0
20260506085019 55 230 1.0 3.0 0.00 0.00 0.00 88 1017.9
20260506084022 55 260 1.0 3.0 0.00 0.00 0.00 88 1017.9
20260506083024 55 224 2.0 3.0 0.00 0.00 0.00 88 1017.9
20260506082027 55 180 2.0 3.0 0.00 0.00 0.00 88 1017.9
20260506081031 55 198 2.0 3.0 0.00 0.00 0.00 88 1017.9
20260506073039 55 201 2.0 3.0 0.00 0.00 0.00 88 1017.4
20260506072017 56 208 2.0 4.0 0.00 0.00 0.00 87 1017.4
20260506071026 56 212 3.0 4.0 0.00 0.00 0.00 87 1017.4